Cardiff Airport

Airport
ICAO code: 
EGFF
IATA Code: 
CWL
Summary
ICAO Region: 
EUR
Territory: 
Location: 
Rhoose, Vale of Glamorgan, Wales
Serving: 
Cardiff
Elevation: 
220 ft
Coordinates: 
Aerial View: 
51° 23' 48" N, 3° 20' 36" W
Metar
Observation
EGFF 241720Z AUTO 11006KT 9999 OVC012 04/02 Q1032
Station
Cardiff-Wales Airport
Date/Time
2022-01-24 17:20:00
Wind direction
110°
Wind speed
06 kts
Lowest cloud amount
overcast
Temperature
4°C
Dew point
2°C
Humidity
86%
QNH
1032 hPa
Weather condition
n/a

Description

International airport serving the city of Cardiff and the South Wales region.

Climatology

Temperate Marine climate/Oceanic climate (Köppen climate classification Cfb). Moderately cool summer and comparatively warm winter with a temperature range of only 14°C. Prevailing south-westerly winds from the Atlantic Ocean.

Runways

Designator Length Width Surface Rops
12/30 2392 46 ASP Yes/Yes
Airport map: 
Aerial View: 

SKYbrary Partners:

Safety knowledge contributed by: